Regional Weather Roundup
Issued by NWS

Home | Current Version | Previous Version | Text Only | Print | Product List | Glossary Off
Versions: 1 2 3 4 5 6 7 8 9 10 11 12 13 14 15 16 17 18 19 20 21 22 23 24 25 26 27 28 29 30 31 32 33 34 35 36 37 38 39 40 41 42 43 44 45 46 47 48 49 50

000
ASUS43 KLMK 240402
RWRKY
KENTUCKY REGIONAL WEATHER ROUNDUP
NATIONAL WEATHER SERVICE LOUISVILLE KY
1200 AM EDT TUE APR 24 2018

NOTE "FAIR" INDICATES FEW OR NO CLOUDS BELOW 12,000 FEET
WITH NO SIGNIFICANT WEATHER AND/OR OBSTRUCTIONS TO VISIBILITY.

KYZ001>023-026-027-061>063-070>075-240500-
WESTERN AND SOUTH CENTRAL KENTUCKY

CITY           SKY/WX    TMP DP  RH WIND       PRES   REMARKS
PADUCAH        FOG       55  54  96 CALM      29.91F VSB 1/4
HENDERSON      FAIR      57  55  93 NE6       29.94F
OWENSBORO      CLOUDY    59  55  87 E5        29.95S
HOPKINSVILLE   NOT AVBL
BOWLING GREEN  CLOUDY    57  55  93 NE3       29.93F
GLASGOW        NOT AVBL
$$

KYZ024-025-028>034-038-045-046-053-240500-
NORTH CENTRAL KENTUCKY

CITY           SKY/WX    TMP DP  RH WIND       PRES   REMARKS
LOUISVILLE/SDF CLOUDY    57  51  80 NE8       29.98F
LOUISVILLE/LOU CLOUDY    57  53  86 E7        29.99S
FORT KNOX      LGT RAIN  55  54  94 NE8       29.97F
$$

KYZ035>037-039>044-047>052-055>060-089>105-240500-
NORTHEAST KENTUCKY

CITY           SKY/WX    TMP DP  RH WIND       PRES   REMARKS
LEXINGTON      CLOUDY    55  50  83 NE9       29.97F
COVINGTON      CLOUDY    53  49  86 E10       30.03F
FRANKFORT      CLOUDY    55  50  83 NE6       29.97F
$$

KYZ054-064>069-076>088-106>120-240500-
SOUTHEAST KENTUCKY

CITY           SKY/WX    TMP DP  RH WIND       PRES   REMARKS
JACKSON        LGT RAIN  56  45  66 VRB3      30.00F
LONDON         CLOUDY    56  50  80 E5        29.94F
SOMERSET       NOT AVBL
MIDDLESBORO    MOCLDY    54  52  95 W5        29.97F
MONTICELLO     RAIN      54  54 100 NW10      29.97F
$$





USA.gov is the U.S. government's official web portal to all federal, state and local government web resources and services.